[ hide orbit diagram ]
For accurate long-term ephemerides, please instead use our Horizons system.This orbit viewer was implemented using two-body methods, and hence should not be used for determining accurate long-term trajectories (over several years or decades) or planetary encounter circumstances.
Orbital Elements at Epoch 2459000.5 (2020-May-31.0) TDB
Reference: JPL 90 (heliocentric ecliptic J2000)
Element | Value | Uncertainty (1-sigma) | Units |
e | .1197648009730981 | 3.9168e-08 | |
a | 3.37767540269155 | 1.5319e-08 | au |
q | 2.973148780336468 | 1.3692e-07 | au |
i | 4.894563207636047 | 3.8003e-06 | deg |
node | 79.55332963686065 | 4.829e-05 | deg |
peri | 299.5518514445412 | 5.0396e-05 | deg |
M | 38.61885254637407 | 1.479e-05 | deg |
tp | 2458757.267189139320 (2019-Sep-30.76718914) | 9.3257e-05 | TDB |
period | 2267.385127631562 6.21 | 1.5425e-05 4.223e-08 | d yr |
n | .1587732033754868 | 1.0801e-09 | deg/d |
Q | 3.782202025046633 | 1.7153e-08 | au |
|
| | Orbit Determination Parameters
Additional Information
|
[ show covariance matrix ]
Physical Parameter Table
Parameter |
Symbol |
Value |
Units |
Sigma |
Reference |
Notes |
absolute magnitude |
H |
8.1 |
|
n/a |
MPO384749 |
|
diameter |
diameter |
167.381 |
km |
3.493 |
urn:nasa:pds:neowise_diameters_albedos::2.0[mainbelt] (http://adsabs.harvard.edu/abs/2014ApJ...791..121M) |
|
rotation period |
rot_per |
12.103 |
h |
n/a |
LCDB (Rev. 2020-October); Warner et al., 2009 |
Published Reference List: [Fauerbach, M.; Marks, S.A. (2009) Minor Planet Bull. 36, 96-97.] |
geometric albedo |
albedo |
0.039 |
|
0.006 |
urn:nasa:pds:neowise_diameters_albedos::2.0[mainbelt] (http://adsabs.harvard.edu/abs/2014ApJ...791..121M) |
|
B-V |
BV |
0.712 |
|
0.025 |
EAR-A-5-DDR-UBV-MEAN-VALUES-V1.2 |
#obs=6; phase (min.=2.49, mean=8.24, max.=17.76) deg. |
U-B |
UB |
0.291 |
|
0.036 |
EAR-A-5-DDR-UBV-MEAN-VALUES-V1.2 |
#obs=6; phase (min.=2.49, mean=8.24, max.=17.76) deg. |
Tholen spectral type |
spec_T |
C |
|
n/a |
EAR-A-5-DDR-TAXONOMY-V4.0 |
used 7 color indices; used ground-based radiometric albedo |
|
566 Stereoskopia (A905 KA) Discovered 1905-May-28 by Gotz, P. at Heidelberg |
Reference: DISCOVERY.DB | Last Updated: 2003-08-29 |
|
[ show close-approach data ]
Alternate Designations
A905 KA = 1927 ED = 1928 HC = A899 JB = A899 LB = A907 VL |
|
|